Regional Weather Roundup
Issued by NWS Mt. Holly, NJ

Home | Current Version | Previous Version | Text Only | Print | Product List | Glossary On
Versions: 1 2 3 4 5 6 7 8 9 10 11 12 13 14 15 16 17 18 19 20 21 22 23 24 25 26 27 28 29 30 31 32 33 34 35 36 37 38 39 40 41 42 43 44 45 46 47 48 49 50
000
ASUS41 KPHI 030911
RWRPHI

REGIONAL WEATHER ROUNDUP
NATIONAL WEATHER SERVICE MOUNT HOLLY NJ
400 AM EST TUE MAR 03 2015

NOTE:  "FAIR" INDICATES FEW OR NO CLOUDS BELOW 12,000 FEET WITH NO
SIGNIFICANT WEATHER AND/OR OBSTRUCTIONS TO VISIBILITY.

 * = STATION DOES NOT REPORT PRECIPITATION (E.G. RAIN, SNOW, ETC.)
        OR FOG.

NJZ015>026-031000-
SOUTHERN NEW JERSEY

CITY           SKY/WX    TMP DP  RH WIND       PRES   REMARKS
POMONA         PTCLDY    22  12  65 N6        30.40S WCI  14
RIO GRANDE*    PTCLDY    28  18  64 N5        30.41R WCI  23
MILLVILLE      PTCLDY    26  14  60 N6        30.41R WCI  19
WRIGHTSTOWN    CLEAR     20  11  66 N5        30.38S WCI  14
MOUNT HOLLY    CLEAR     24  10  55 N5        30.42R WCI  18
TRENTON        CLEAR     21   8  57 CALM      30.40R

$$
NJZ001>014-031000-
NORTHERN NEW JERSEY

CITY           SKY/WX    TMP DP  RH WIND       PRES   REMARKS
SUSSEX         CLEAR      8   2  76 CALM      30.37S
ANDOVER*         N/A      8   3  80 CALM      30.37S
MORRISTOWN     CLEAR     14   7  73 CALM      30.39S
NEWARK         PTCLDY    22  10  60 W6        30.40S WCI  14
TETERBORO      CLEAR     20   8  60 CALM      30.39R
CALDWELL       CLEAR     14   5  67 CALM      30.40R
SOMERVILLE     CLEAR     16   6  65 CALM      30.39R
ALLAIRE*       CLEAR     23   7  50 NW5       30.39S WCI  17
TOMS RIVER*    CLEAR     21   9  58 N7        30.41S WCI  13

$$
PAZ043-044-047-054-055-060>062-066>071-031000-
EASTERN PENNSYLVANIA

CITY           SKY/WX    TMP DP  RH WIND       PRES   REMARKS
PHILADELPHIA   PTCLDY    26  10  50 N12       30.43S WCI  16
NORTH PHILA    CLEAR     24   8  50 N7        30.42F WCI  16
BLUE BELL      CLEAR     27  10  50 CALM      30.39F
DOYLESTOWN     CLEAR     18   9  68 N5        30.38S WCI  11
QUAKERTOWN*    PTCLDY    14   7  73 CALM      30.39S
POTTSTOWN      PTCLDY    21   7  54 NW5       30.41S WCI  15
LANCASTER      PTCLDY    20   8  60 N8        30.40R WCI  10
COATESVILLE    CLEAR     23  10  58 N3        30.38R
READING        CLEAR     19   6  57 CALM      30.40S
ALLENTOWN      CLEAR     12   3  67 CALM      30.40S
MOUNT POCONO   CLEAR      6   1  80 SW3       30.26S
HAZLETON       CLEAR     14   9  79 CALM      30.33R
WILKES BARRE   CLEAR     12   4  70 CALM      30.35S

$$
DEZALL-MDZ008-012-015-019-020-031000-
DELAWARE AND EASTERN MARYLAND

CITY           SKY/WX    TMP DP  RH WIND       PRES   REMARKS
WILMINGTON     PTCLDY    24  13  62 NE8       30.42R WCI  15
DOVER          MOCLDY    25  18  72 N5        30.41R WCI  20
GEORGETOWN     MOCLDY    26  17  68 CALM      30.41R
EASTON         MOCLDY    29  20  67 N3        30.45R
PATUXENT       MOCLDY    29  18  63 N6        30.42S WCI  23
OCEAN CITY     MOCLDY    27  17  66 NW6       30.41R WCI  20
WALLOPS ISLAND PTCLDY    28  16  60 N6        30.41S WCI  22
CAMBRIDGE      MOCLDY    32  18  55 N3        30.41R
SALISBURY      MOCLDY    30  17  58 N6        30.41R WCI  24

$$
PAZ001-021-NYZ056-072-MDZ011-DCZ001-031000-
OTHER NEARBY LOCATIONS

CITY           SKY/WX    TMP DP  RH WIND       PRES   REMARKS
HARRISBURG     MOCLDY    23   9  55 NE5       30.39F WCI  17
STATE COLLEGE  PTCLDY    15   8  71 CALM      30.34S
WILLIAMSPORT   FAIR      11   5  77 S5        30.41R WCI   3
BINGHAMTON     CLEAR     13   8  81 NW3       30.27F
NEW YORK CITY  CLEAR     25   8  48 NW6       30.40S WCI  18
BALTIMORE      CLOUDY    25  15  66 CALM      30.42R
WASHINGTON DC  CLOUDY    31  17  56 N7        30.42R WCI  24

$$


USA.gov is the U.S. government's official web portal to all federal, state and local government web resources and services.